Overview Statistics Trail Chart Weather Telemetry Raw packets
 

This is the latest recevied weather packets stored in our database for station/object N3LF. If no packets are shown the sender has not sent any weather packets the latest 10 day(s).

<< 80 81 82 83 84 85 86 >>
Time Temp. Humidity Pressure Rain* Wind** Luminosity Snow
1788038403 34.44° C 42% 1020.4 hPa 0 mm - 315 W/m² -
1788038098 33.33° C 41% 1020.5 hPa 0 mm - 333 W/m² -
1788037797 33.89° C 44% 1020.4 hPa 0 mm - 373 W/m² -
1788037491 34.44° C 41% 1020.5 hPa 0 mm - 416 W/m² -
1788037186 35° C 42% 1020.6 hPa 0 mm - 408 W/m² -
1788036886 33.33° C 43% 1020.6 hPa 0 mm - 431 W/m² -
1788036583 33.89° C 42% 1020.7 hPa 0 mm - 362 W/m² -
1788036278 33.89° C 41% 1020.7 hPa 0 mm - 393 W/m² -
1788035973 33.33° C 45% 1020.7 hPa 0 mm - 401 W/m² -
1788035672 33.89° C 45% 1020.8 hPa 0 mm - 395 W/m² -
1788035368 33.89° C 47% 1020.8 hPa 0 mm - 451 W/m² -
1788035064 34.44° C 44% 1020.9 hPa 0 mm - 473 W/m² -
1788034760 35° C 41% 1021 hPa 0 mm - 509 W/m² -
1788034456 33.33° C 45% 1021.1 hPa 0 mm - 518 W/m² -
1788034152 32.78° C 45% 1021.1 hPa 0 mm - 542 W/m² -
1788033850 33.33° C 44% 1021.3 hPa 0 mm - 541 W/m² -
1788033545 33.89° C 46% 1021.3 hPa 0 mm - 547 W/m² -
1788033245 32.22° C 45% 1021.3 hPa 0 mm - 556 W/m² -
1788032941 33.33° C 44% 1021.4 hPa 0 mm - 564 W/m² -
1788032640 32.22° C 45% 1021.4 hPa 0 mm - 568 W/m² -
1788032335 32.78° C 44% 1021.4 hPa 0 mm - 584 W/m² -
1788032030 33.89° C 44% 1021.5 hPa 0 mm - 606 W/m² -
1788031726 32.78° C 46% 1021.4 hPa 0 mm - 343 W/m² -
1788031425 33.89° C 46% 1021.7 hPa 0 mm - 108 W/m² -
1788031121 33.89° C 43% 1021.5 hPa 0 mm - 639 W/m² -

* Rain latest hour (hover to see other rain measurements)
** Current wind speed in m/s (hover to see current wind gust speed)